Meling Ranch Airstrip

Jump to: basic info | weather | comments

Related pages: nearby airports | nearby navaids

Basic information (top)

Codes: MSJG
Location: lon 30.975328, lat -115.737877
Status: small_airport

Weather (top)

Current conditions for General Rodolfo Sánchez Taboada International Airport 103nm (190km) NNE (rec'd 2014/08/23 04:44Z):

MMML 230444Z 23003KT 10SM SKC 30/18 A2984 RMK MSGTX MMMX

Airport forecast for General Rodolfo Sánchez Taboada International Airport 103nm (190km) NNE (rec'd 2014/08/21 18:15Z):

TAF MMML 211712Z 2118/2218 23012KT P6SM SCT040 SCT250 
     FM220300 00000KT P6SM SCT250

Latest comments (top)

No comments yet for Meling Ranch Airstrip

More... (top)

See also NOTAMs and nearby airports and navaids, or visit the Meling Ranch Airstrip page at the main OurAirports website..